Home   Weather   Willich   Past weeks

Flag for Germany Past Weather in Willich, North Rhine-Westphalia, Germany — Yesterday and Last 2 Weeks

55 °F

Passing clouds.

Feels Like: 54 °F
Forecast: 46 / 58 °F
Wind: 6 mph from West

Location: Monchengladbach Airport

Current Time: Oct 28, 2016 at 10:40:35 AM

Latest Report: Oct 28, 2016 at 9:50 AM

Visibility: N/A

Pressure: 30.48 "Hg

Humidity: 82%

Dew Point: 50 °F

Location of WillichLocation

Past Weather in Willich — Graph


Willich Temperature Yesterday

Maximum temperature yesterday: 55 °F (at 1:20 PM)
Minimum temperature yesterday: 46 °F (at 7:50 AM)
Average temperature yesterday: 53 °F

High & Low Weather Summary for the Past Weeks

High66 °F (Oct 16, 3:20 PM)100% (Oct 15, 8:50 AM)30.51 "Hg (Oct 15, 8:50 AM)
Low37 °F (Oct 23, 7:50 AM)55% (Oct 13, 2:50 PM)29.68 "Hg (Oct 14, 7:50 PM)
Average51 °F84%30.05 "Hg
* Reported Oct 13 9:20 AM — Oct 28 9:20 AM, Willich, Weather by CustomWeather, © 2016

Note: Actual official high and low records may vary slightly from our data, if they occured in-between our weather recording intervals... More about our weather records


Willich Weather History for the Previous 24 Hours

Scroll right to see more
Time TempWeatherWind HumidityBarometerVisibility
9:20 AM
Fri, Oct 28
54 °FPartly sunny.5 mph88%30.48 "Hg5 mi
8:50 AM54 °FPartly sunny.5 mph88%30.48 "Hg5 mi
8:20 AM54 °FPartly sunny.5 mph88%30.45 "Hg5 mi
7:50 AM54 °FPartly sunny.5 mph88%30.45 "Hg5 mi
8:20 PM
Thu, Oct 27
50 °FClear.No wind94%30.51 "Hg10 mi
7:50 PM50 °FPassing clouds.3 mph94%30.48 "HgN/A
7:20 PM52 °FPartly cloudy.2 mph94%30.48 "Hg5 mi
6:50 PM54 °FPassing clouds.5 mph88%30.48 "Hg4 mi
6:20 PM54 °FPassing clouds.3 mph88%30.48 "Hg4 mi
5:50 PM54 °FFog.3 mph88%30.51 "Hg3 mi
5:20 PM55 °FFog.5 mph82%30.51 "Hg3 mi
4:50 PM55 °FPassing clouds.6 mph82%30.51 "Hg4 mi
4:20 PM55 °FPassing clouds.6 mph82%30.51 "Hg4 mi
3:50 PM55 °FFog.6 mph82%30.51 "Hg3 mi
3:20 PM55 °FFog.6 mph82%30.51 "Hg3 mi
2:50 PM55 °FFog.8 mph82%30.51 "Hg3 mi
2:20 PM55 °FFog.6 mph82%30.51 "Hg3 mi
1:50 PM55 °FFog.5 mph82%30.51 "Hg3 mi
1:20 PM55 °FFog.7 mph82%30.51 "Hg3 mi
12:50 PM54 °FFog.7 mph88%30.51 "Hg3 mi
12:20 PM54 °FFog.7 mph88%30.51 "Hg2 mi
11:50 AM54 °FFog.6 mph88%30.51 "Hg2 mi
11:20 AM54 °FPartly cloudy.7 mph88%30.51 "HgN/A
10:50 AM52 °FFog.5 mph94%30.51 "Hg2 mi
10:20 AM52 °FFog.5 mph88%30.51 "Hg2 mi
Weather by CustomWeather, © 2016

See weather overviewHow to use our weather pages